Regional Weather Roundup
Issued by NWS

Home | Current Version | Previous Version | Text Only | Print | Product List | Glossary Off
Versions: 1 2 3 4 5 6 7 8 9 10 11 12 13 14 15 16 17 18 19 20 21 22 23 24 25 26 27 28 29 30 31 32 33 34 35 36 37 38 39 40 41 42 43 44 45 46 47 48 49 50

000
ASUS43 KLSX 280507
RWRMO

WEATHER SUMMARY FOR MISSOURI
NATIONAL WEATHER SERVICE SPRINGFIELD MO
1200 AM CDT TUE JUL 28 2015

NOTE: "FAIR" INDICATES FEW OR NO CLOUDS BELOW 12,000 FEET WITH NO
       SIGNIFICANT WEATHER AND/OR OBSTRUCTIONS TO VISIBILITY.
       CURRENT SKY AND/OR WEATHER CONDITIONS ARE NOT AVAILABLE FOR
       CHILLICOTHE AND FARMINGTON.

MOZ001>031-035>038-043-044-053-054-280600-
...NORTHERN AND WESTERN MISSOURI...

CITY           SKY/WX    TMP DP  RH WIND       PRES   REMARKS
KANSAS CTY INT PTCLDY    80  75  84 SE10      29.90S
KANSAS C DTWN  CLEAR     83  77  82 E8        29.88F HX  92
LEE`S SUMMIT   CLEAR     83  74  74 SE6       29.92S
ST JOSEPH      CLEAR     77  73  87 SE5       29.89S
CHILLICOTHE      N/A     77  70  79 VRB3      29.93S
KIRKSVILLE     CLEAR     73  70  90 SE7       29.95S

$$
MOZ066>068-077>081-088>096-101>105-280600-
...SOUTHWEST MISSOURI...

CITY           SKY/WX    TMP DP  RH WIND       PRES   REMARKS
SPRINGFIELD    CLEAR     82  75  79 S10       29.96F
JOPLIN         CLEAR     82  75  79 SE6       29.93F

$$
MOZ032>034-039>042-045>050-055>058-069>072-280600-
...CENTRAL MISSOURI...

CITY           SKY/WX    TMP DP  RH WIND       PRES   REMARKS
COLUMBIA       CLEAR     74  71  91 SE9       29.96S
JEFFERSON CITY CLEAR     77  70  79 E6        29.94S
ROLLA          LGT RAIN  74  71  91 SE14      29.96F
SEDALIA        PTCLDY    79  72  79 E7        29.94F
WHITEMAN AFB   PTCLDY    78  73  83 E8        29.91S
WARRENSBURG    PTCLDY    79  73  83 E8        29.91S
OSAGE BEACH    MOCLDY    81  75  83 E7        29.96R

$$
MOZ051-052-059>065-280600-
...EAST CENTRAL MISSOURI...

CITY           SKY/WX    TMP DP  RH WIND       PRES   REMARKS
ST LOUIS INTL  CLOUDY    79  69  71 VRB6      29.96S
SPIRIT OF STL  CLOUDY    77  72  84 S5        29.94F
ST CHARLES     CLOUDY    74  73  97 CALM      29.94S

$$
MOZ072>076-082>087-097>100-106>115-280600-
...SOUTH CENTRAL AND SOUTHEAST MISSOURI...

CITY           SKY/WX    TMP DP  RH WIND       PRES   REMARKS
CAPE GIRARDEAU CLOUDY    77  74  90 SE6       29.95F
FARMINGTON     CLOUDY    75  75 100 E6        30.03S
POPLAR BLUFF   MOCLDY    81  79  94 CALM      29.94S FOG     HX  90
WEST PLAINS    PTCLDY    78  72  81 S3        29.99F

$$



USA.gov is the U.S. government's official web portal to all federal, state and local government web resources and services.